Regional Weather Roundup
Issued by NWS

Home | Current Version | Previous Version | Graphics & Text | Print | Product List | Glossary On
Versions: 1 2 3 4 5 6 7 8 9 10 11 12 13 14 15 16 17 18 19 20 21 22 23 24 25 26 27 28 29 30 31 32 33 34 35 36 37 38 39 40 41 42 43 44 45 46 47 48 49 50
000
ASUS43 KFSD 180510
RWRSD

WEATHER ROUNDUP FOR SOUTH DAKOTA
NATIONAL WEATHER SERVICE SIOUX FALLS SD
1200 AM CDT THU SEP 18 2014

NOTE: "FAIR" INDICATES FEW OR NO CLOUDS BELOW 12,000 FEET WITH NO
SIGNIFICANT WEATHER AND/OR OBSTRUCTIONS TO VISIBILITY.


SDZ001>005-009-010-012>017-180600-
NORTHWEST AND NORTH CENTRAL SOUTH DAKOTA

CITY           SKY/WX    TMP DP  RH WIND       PRES   REMARKS
BUFFALO          N/A     59  50  72 SE10      29.89F
FAITH            N/A     57  46  66 SE14      29.96S
MOBRIDGE       CLEAR     53  47  79 SE6       29.96R
$$

SDZ012>016-024>037-041>051-057-063-072>074-180600-
SOUTHWEST AND SOUTH CENTRAL SOUTH DAKOTA

CITY           SKY/WX    TMP DP  RH WIND       PRES   REMARKS
RAPID CTY ARPT CLEAR     58  51  78 S3        29.99S
PIERRE         PTCLDY    56  46  69 NE9       29.95R
CUSTER         CLEAR     55  49  80 N5        30.09F
ELLSWORTH AFB  CLEAR     61  52  72 S6        29.98F
PHILIP         MOCLDY    64  55  72 SE13      29.95S
PINE RIDGE     CLEAR     60  53  77 NE7       29.96S
WINNER         FAIR      64  56  75 E3        30.00R
$$

SDZ004>011-016>023-039-040-180600-
NORTHEAST SOUTH DAKOTA

CITY           SKY/WX    TMP DP  RH WIND       PRES   REMARKS
ABERDEEN       CLEAR     50  48  93 NE5       29.99S
WATERTOWN      CLEAR     56  49  77 CALM      30.00F
SISSETON         N/A     47  46  97 NW3       29.99F
$$

SDZ017-020-022-023-036>040-048>070-180600-
SOUTHEAST SOUTH DAKOTA

CITY           SKY/WX    TMP DP  RH WIND       PRES   REMARKS
SIOUX FALLS    MOCLDY    59  54  83 CALM      30.00R
HURON          CLOUDY    62  54  74 SE9       29.95F
CHAMBERLAIN    MOCLDY    57  52  83 SE9       29.95F
MITCHELL       CLOUDY    60  56  86 E6        29.98R
YANKTON        PTCLDY    57  54  88 N5        29.98R
$$

ABBREVIATIONS USED IN REMARKS
   TC - TEMPERATURE IN CELSIUS
  WCI - WIND CHILL INDEX
   HX - HEAT INDEX
  VSB - VISIBILITY



USA.gov is the U.S. government's official web portal to all federal, state and local government web resources and services.